Location: ????????
(37.6846°N, 24.0673°E)
Time: 14:12:11
(UTC+00:00)

Cosmos 1464 Rocket - Pass Details

Date: 14 July 2020
Orbit: 952 x 1002 km, 82.9° (Epoch: 03 August)

Event Time Altitude Azimuth Distance (km) Brightness Sun altitude
Exits shadow 01:59:22 13° 202° (SSW) 2,547 5.7 -12.9°
Maximum altitude 02:05:01 59° 279° (W) 1,152 4.2 -12.1°
Drops below altitude 10° 02:11:18 10° 359° (N) 2,772 6.9 -11.1°
Sets 02:13:53 0° 3° (N) 3,720 7.7 -10.7°
